SCP
0 0 0 0 0 0 0 0 0 0 0 0 -0 0 0 0 0 0 0 0 0 0 0 0 0 0 0 0 0 0 0 0 0 0 0 0 0 0 0 0 0 0 0 0
0 0 0 0 0 0 0 0 0 0 0 0 0 0 0 0 0 0 0 0 0 0 0 0 0 0 0 0 0 0 0 0 0 0 0 0 0 0 0 0 0 0 0 0
0 0 0 0 0 0 0 0 0 0 0 0 0 0 0 0 0 0 0 0 0 0 0 0 0 0 0 0 0 0 0 0 0 0 0 0 0 0 0 0 0 0 0 0
0 0 0 0 0 0 0 0 0 0 0 0 0 0 0 0 0 0 0 0 0 0 0 0 0 0 0 0 0 0 0 0 0 0 0 0 0 0 0 0 0 0 0 0
0 0 0 0 0 0 0 0 0 0 0 0 0 0 0 0 0 0 0 0 0 0 0 0 0 0 0 0 0 0 0 0 0 0 0 0 0 0 0 0 0 0 0 0
0 0 0 0 0 0 0 0 0 0 0 0 0 0 0 0 0 0 0 0 0 0 0 0 0 0 0 0 0 0 0 0 0 0 0 0 0 0 0 0 0 0 0 0
0 0 0 0 0 0 0 0 0 0 0 0 0 0 0 0 0 0 0 0 0 0 0 0 0 0 0 0 0 0 0 0 0 0 0 0 0 0 0 0 0 0 0 0
0 0 0 0 0 0 0 0 0 0 0 0 0 0 0 0 0 0 0 0 0 0 0 0 0 0 0 0 0 0 0 0 0 0 0 0 0 0 0 0 0 0 0 0
0 0 0 0 0 0 0 0 0 0 0 0 0 0 0 0 0 0 0 0 0 0 0 0 0 0 0 0 0 0 0 0 0 0 0 0 0 0 0 0 0 0 0 0
0 0 0 0 0 0 0 0 0 0 0 0 0 0 0 0 0 0 0 0 0 0 0 0 0 0 0 0 0 0 0 0 0 0 0 0 0 0 0 0 0 0 0 0
0 0 0 0 0 0 0 0 0 0 0 0 0 0 0 0 0 0 0 0 0 0 0 0 0 0 0 0 0 0 0 0 0 0 0 0 0 0 0 0 0 0 0 0
0 0 0 0 0 0 0 0 0 0 0 0 0 0 0 0 0 0 0 0 0 0 0 0 0 0 0 0 0 0 0 0 0 0 0 0 0 0 0 0 0 0 0 0
0 0 0 0 0 0 0 0 0 0 0 0 0 0 0 0 0 0 0 0 0 0 0 0 0 0 0 0 0 0 0 0 0 0 0 0 0 0 0 0 -0 -0 0 0
0 0 0 0 0 0 0 0 0 0 0 0 0 0 0 0 0 0 0 0 0 0 0 0 0 0 0 0 0 0 0 0 0 0 0 0 0 0 0 0 0 0 0 0
0 0 0 0 0 0 0 0 0 0 0 0 0 0 0 0 0 0 0 0 0 0 0 0 0 0 0 0 0 0 0 0 0 0 0 0 0 0 0 0 0 0 0 0
0 0 0 0 0 0 0 0 0 0 0 0 0 0 0 0 0 0 0 0 0 0 0 0 0 0 0 0 0 0 0 0 0 0 0 0 0 0 0 0 0 0 0 0
0 0 0 0 0 0 0 0 0 0 0 0 0 0 0 0 0 0 0 0 0 0 0 0 0 0 0 0 0 0 0 0 0 0 0 0 0 0 0 0 0 0 0 0
0 0 0 0 0 0 0 0 0 0 0 0 0 0 0 0 0 0 0 0 0 0 0 0 0 0 0 0 0 0 0 0 0 0 0 0 0 0 0 0 0 0 0 0
0 0 0 0 0 0 0 0 0 0 0 0 0 0 0 0 0 0 0 0 0 0 0 0 0 0 0 0 0 0 0 0 0 0 0 0 0 0 0 0 0 0 0 0
0 0 0 0 0 0 0 0 0 0 0 0 0 0 0 0 0 0 0 0 0 0 0 0 0 0 0 0 0 0 0 0 0 0 0 0 0 0 0 0 0 0 0 0
0 0 0 0 0 0 0 0 0 0 0 0 0 0 0 0 0 0 0 0 0 0 0 0 0 0 0 0 0 0 0 0 0 0 0 0 0 0 0 0 0 0 0 0
0 0 0 0 0 0 0 0 0 0 0 0 0 0 0 0 0 0 0 0 0 0 0 0 0 0 0 0 0 0 0 0 0 0 0 0 0 0 0 0 0 0 0 0
0 0 0 0 0 0 0 0 0 0 0 0 0 0 0 0 0 0 0 0 0 0 0 0 0 0 0 0 0 0 0 0 0 0 0 0 0 0 0 0 0 0 0 0
0 0 0 0 0 0 0 0 0 0 0 0 0 0 0 0 0 0 0 0 0 0 0 0 0 0 0 0 0 0 0 0 0 0 0 0 0 0 0 0 0 0 0 0
0 0 0 0 0 0 0 0 0 0 0 0 0 0 0 0 0 0 0 0 0 0 0 0 0 0 0 0 0 0 0 0 0 0 0 0 0 0 0 0 0 0 0 0
0 0 0 0 0 0 0 0 0 0 0 0 0 0 0 0 0 0 0 0 0 0 0 0 0 0 0 0 0 0 0 0 0 0 0 0 0 0 0 0 0 0 0 0
0 0 0 0 0 0 0 0 0 0 0 0 0 0 0 0 0 0 0 0 0 0 0 0 0 0 0 0 0 0 0 0 0 0 0 0 0 0 0 0 0 0 0 0
Wind_Speed
4 4 4 4 5 7 6 7 7 7 7 9 7 5 4 3 3 5 6 7 9 9 8 8 7 7 8 7 7 7 7 6 6 5 5 4 4 3 3 3 3 2 2 1
1 2 3 3 5 7 7 6 6 5 8 8 5 2 2 3 4 6 7 8 9 9 9 9 9 9 8 8 8 7 8 7 6 5 5 5 4 4 3 3 2 2 2 2
2 2 1 5 7 7 5 5 7 8 9 4 2 4 5 5 6 7 7 8 9 10 10 10 10 10 10 9 8 8 8 7 6 6 6 6 5 4 4 3 3 3 2 2
1 1 5 8 4 5 5 5 6 6 5 4 6 5 4 5 6 6 6 7 8 8 9 8 8 8 8 8 8 8 7 7 7 7 6 6 5 5 4 3 3 3 3 3
3 3 6 7 3 5 5 5 5 6 5 3 1 2 3 4 5 7 7 7 7 8 8 7 8 8 8 8 8 8 8 8 8 8 7 7 6 5 4 3 3 3 2 3
4 4 6 7 3 3 4 4 4 5 5 3 4 1 5 3 3 3 4 4 5 5 6 7 7 8 9 8 8 9 9 8 7 8 8 7 7 5 4 3 3 3 2 2
5 5 8 7 2 5 4 7 4 4 5 6 7 7 5 2 2 3 4 4 5 6 6 6 7 9 9 8 10 9 7 6 6 7 7 7 5 4 4 4 3 3 2 1
5 4 8 3 5 7 7 4 2 3 4 6 5 4 2 2 2 3 4 4 6 6 5 5 7 9 9 9 8 6 7 7 6 6 6 6 5 4 4 5 4 3 2 1
9 8 5 3 6 5 3 3 3 3 3 4 4 4 3 2 3 3 5 5 5 6 6 4 6 8 10 8 7 7 7 7 6 6 5 5 6 6 4 4 4 3 2 2
4 6 4 4 3 3 3 4 4 3 3 4 4 4 3 3 3 3 4 5 5 6 6 5 5 6 7 6 8 8 7 6 6 6 5 4 4 4 4 5 4 4 3 3
4 5 3 3 3 3 2 2 1 1 2 4 4 4 4 4 4 4 4 4 5 7 7 6 5 5 5 6 8 8 7 6 6 5 5 4 3 3 4 4 6 6 4 4
7 6 5 5 4 2 2 2 2 2 1 1 3 5 4 4 4 4 4 4 5 6 6 6 6 5 5 6 8 9 7 6 5 4 4 4 4 2 1 2 4 5 5 5
6 4 4 5 3 2 2 3 2 3 3 3 2 3 3 3 3 4 4 5 6 7 7 6 6 6 5 6 8 8 8 6 5 5 5 4 4 4 2 2 3 2 2 4
4 2 3 4 4 3 2 2 1 1 1 2 3 3 3 2 2 4 5 5 6 6 6 6 7 6 5 6 7 7 7 7 7 5 5 5 4 4 4 4 2 1 1 1
6 5 6 4 3 3 2 1 1 0 0 0 2 3 4 4 4 4 4 4 5 5 6 6 6 5 5 7 8 8 6 5 5 5 4 4 4 4 3 3 3 2 1 1
6 3 3 3 4 4 2 2 3 3 2 2 2 3 3 4 4 3 3 5 6 6 6 7 6 5 6 7 7 6 5 9 8 5 5 4 4 4 4 3 3 2 2 2
5 5 5 5 5 5 5 5 5 4 3 4 4 3 4 4 3 2 3 4 5 5 6 6 6 5 6 7 7 6 5 6 9 6 5 5 5 4 4 4 4 3 2 2
6 7 6 6 6 6 5 4 4 4 4 4 3 4 5 6 5 4 4 4 4 3 3 4 5 6 6 7 6 5 5 5 5 5 5 4 4 4 4 4 4 4 2 2
4 5 5 4 4 4 4 4 4 3 3 4 4 5 4 4 5 4 4 5 5 4 3 4 8 7 6 7 8 5 6 6 5 5 4 5 5 4 4 4 3 3 3 2
4 3 3 3 2 3 3 2 2 2 2 3 4 4 3 3 4 5 5 4 4 4 4 5 6 5 6 7 9 5 6 7 6 5 5 5 4 4 4 4 4 3 3 2
3 3 2 2 2 2 3 3 3 3 2 3 4 5 4 4 4 4 5 2 2 3 4 7 5 5 5 7 9 5 6 6 6 5 5 5 5 4 4 4 4 3 3 2
3 2 2 2 2 1 2 2 3 3 2 2 3 4 4 4 3 3 2 2 2 4 4 3 4 6 8 9 5 5 6 6 5 5 5 5 5 4 4 4 4 3 3 3
2 2 2 2 2 2 1 2 3 4 4 4 4 5 5 4 4 4 2 2 3 5 4 3 6 10 11 7 5 5 6 6 5 5 5 5 5 5 4 4 3 3 3 3
2 2 1 1 2 2 2 1 1 2 2 2 3 4 5 4 2 1 2 5 6 6 3 5 9 10 9 5 5 5 5 5 5 5 5 4 4 4 3 3 3 3 3 3
2 1 1 2 3 3 3 3 3 3 3 2 2 2 2 2 3 3 3 4 7 6 4 6 9 9 6 4 5 5 5 5 5 5 5 5 4 4 3 3 3 3 3 2
1 1 2 2 2 2 2 3 3 3 3 3 2 2 2 3 3 4 3 4 5 6 4 3 4 5 4 5 5 5 5 5 5 4 5 5 5 4 4 3 4 3 3 2
0 0 1 1 1 1 2 3 3 3 4 4 3 2 3 3 4 4 4 4 4 4 4 3 3 4 4 4 5 5 5 4 4 4 4 4 4 4 4 4 3 3 2 2
Wind_Direction
224 223 192 212 212 188 190 193 195 231 239 259 255 241 240 217 189 174 177 180 184 187 189 186 182 183 182 182 177 170 166 172 182 181 172 163 160 160 155 152 158 159 148 150
282 255 209 232 227 205 211 209 218 241 260 255 254 223 224 213 190 190 193 192 191 190 188 187 186 185 181 182 178 169 173 182 178 169 166 166 167 161 151 154 156 150 162 168
260 306 25 260 229 203 204 208 193 218 241 260 243 223 216 210 203 204 202 197 194 193 192 191 189 184 185 184 172 172 178 180 175 173 174 176 168 159 163 167 160 162 181 176
156 78 238 246 233 197 199 226 210 221 239 228 227 233 228 204 201 209 205 198 197 192 191 189 182 180 178 168 169 175 179 180 176 174 178 172 164 169 175 165 167 182 192 194
144 198 269 288 252 184 184 250 221 217 239 232 192 36 306 220 200 206 203 200 196 189 181 176 175 170 161 165 169 173 181 184 181 176 174 169 172 179 176 166 178 189 187 189
146 175 231 246 254 186 137 268 252 205 217 193 124 124 263 247 208 212 193 183 175 166 158 166 172 158 159 167 171 185 190 187 179 174 173 176 181 178 170 172 185 183 189 198
174 206 252 249 232 121 155 241 254 202 203 178 183 207 234 219 193 190 172 165 153 150 160 173 162 154 163 170 189 193 179 169 169 172 175 176 174 168 162 161 158 166 179 212
163 195 247 234 146 173 214 241 232 215 203 190 204 224 223 180 184 169 156 150 150 150 160 159 157 158 167 187 192 169 159 163 170 172 173 167 158 159 155 153 155 166 172 233
188 210 233 203 201 223 201 210 233 216 221 187 196 222 213 193 188 179 168 163 159 156 154 155 165 168 177 190 165 151 154 164 166 161 161 158 158 159 155 157 161 173 177 207
228 255 250 248 243 245 215 215 236 225 203 184 200 209 198 192 188 185 175 169 161 153 157 168 176 177 183 168 154 151 156 159 154 152 153 156 159 164 165 171 174 179 187 206
242 264 293 288 251 252 261 243 229 248 205 192 185 200 194 191 191 186 177 169 164 165 170 176 170 171 165 156 150 150 153 153 152 153 154 153 156 172 181 192 187 185 197 193
221 224 201 244 257 256 248 247 220 196 238 233 190 196 192 188 186 176 172 164 165 168 167 166 159 161 157 153 154 151 151 154 156 153 153 152 146 118 71 162 184 189 186 180
215 222 220 249 268 250 236 248 235 211 197 202 210 190 179 176 171 163 165 168 174 175 169 161 155 157 160 158 156 156 157 159 155 155 156 157 157 153 141 51 62 104 163 176
227 194 241 248 252 263 249 245 221 219 220 186 175 164 158 149 148 163 181 186 175 162 159 159 157 165 165 157 154 154 153 155 155 160 160 162 164 163 159 154 140 25 7 117
246 223 224 243 259 271 261 171 132 191 195 173 157 159 160 163 179 193 185 163 149 148 155 157 160 169 160 155 154 154 153 154 154 152 152 155 153 148 146 148 148 146 101 49
250 242 224 227 240 251 246 207 197 217 214 205 194 191 183 176 172 166 156 153 155 167 171 167 172 172 158 154 151 153 156 156 151 148 148 145 144 143 146 150 154 158 168 177
221 234 231 232 236 240 238 227 213 214 212 205 203 185 152 140 140 152 160 165 167 172 171 171 174 164 157 156 153 153 149 152 149 145 153 157 156 158 160 160 165 171 187 186
220 223 220 215 218 226 233 224 212 203 206 210 185 162 160 164 175 182 171 149 136 135 165 171 160 156 156 157 155 150 149 150 151 153 155 157 159 160 158 159 163 163 165 154
245 232 231 227 221 214 212 209 208 205 197 172 171 181 184 181 170 162 152 149 156 174 198 175 159 156 160 163 152 148 148 148 147 149 149 151 148 147 151 155 159 163 162 154
265 243 228 234 233 219 212 204 184 189 191 167 159 158 164 172 159 151 151 165 188 192 175 160 157 159 164 162 152 150 152 153 153 152 149 150 153 155 156 157 159 161 162 163
279 264 231 224 231 225 206 182 170 181 183 165 164 172 173 167 153 149 147 168 222 162 152 153 155 160 161 156 152 150 153 153 153 155 156 156 156 157 159 160 161 163 163 162
275 270 233 214 194 203 205 172 166 165 156 153 153 152 144 140 140 130 145 177 181 155 148 155 160 159 154 149 148 149 150 150 151 151 153 155 157 159 161 161 162 163 161 161
277 265 229 205 188 190 177 154 158 159 162 167 166 163 158 159 160 152 164 190 162 154 146 158 156 151 145 139 142 146 150 151 153 155 157 157 158 159 161 162 161 159 160 163
290 270 239 197 153 146 164 184 157 153 155 160 163 159 150 143 137 159 151 153 151 145 142 149 146 143 137 137 143 147 150 151 150 150 148 146 146 149 153 155 153 153 158 159
268 244 193 157 168 187 186 160 131 124 118 113 114 122 127 138 148 150 138 141 142 134 129 137 137 135 134 138 144 147 149 151 150 147 146 145 146 149 151 152 154 155 157 161
246 216 212 206 194 187 178 159 151 150 139 127 111 102 100 101 113 118 119 124 129 125 121 121 128 128 130 136 139 138 136 138 139 139 143 144 145 147 150 151 149 151 152 154
322 167 138 106 129 166 167 159 156 158 157 148 135 123 119 119 117 117 118 117 117 115 115 117 120 123 127 129 129 130 131 132 134 139 141 141 143 147 152 150 148 146 144 144